| time (UTC) | temp C | wind direction | speed KPH | gust KPH | rain 1hr cm | rain 24hr cm | rain mn cm | humidity % | barometer mb |
| 20260507050006 | 16 | 41 | 1.6 | 4.8 | 0.00 | 0.00 | 0.00 | 70 | 1004.0 |
| 20260507045003 | 16 | 315 | 1.6 | 3.2 | 0.00 | 0.00 | 0.00 | 74 | 1004.0 |
| 20260507044005 | 16 | 90 | 1.6 | 3.2 | 0.00 | 0.00 | 0.00 | 77 | 1004.0 |
| 20260507043002 | 15 | 315 | 3.2 | 4.8 | 0.00 | 0.00 | 0.00 | 78 | 1004.0 |
| 20260507042003 | 15 | 69 | 1.6 | 4.8 | 0.00 | 0.00 | 0.00 | 79 | 1004.0 |
| 20260507041003 | 15 | 135 | 1.6 | 3.2 | 0.00 | 0.00 | 0.00 | 80 | 1004.0 |
| 20260507040005 | 15 | 114 | 3.2 | 4.8 | 0.00 | 0.00 | 0.00 | 81 | 1003.0 |
| 20260507035004 | 14 | 114 | 3.2 | 4.8 | 0.00 | 0.00 | 0.00 | 82 | 1003.0 |
| 20260507034003 | 14 | 111 | 3.2 | 4.8 | 0.00 | 0.00 | 0.00 | 82 | 1003.0 |
| 20260507033009 | 14 | 108 | 3.2 | 4.8 | 0.00 | 0.00 | 0.00 | 82 | 1004.0 |
| 20260507032006 | 14 | 105 | 1.6 | 3.2 | 0.00 | 0.00 | 0.00 | 82 | 1003.0 |
| 20260507031003 | 14 | 112 | 3.2 | 4.8 | 0.00 | 0.00 | 0.00 | 82 | 1003.0 |
| 20260507030006 | 14 | 115 | 3.2 | 6.4 | 0.00 | 0.00 | 0.00 | 82 | 1003.0 |
| 20260507025002 | 14 | 115 | 3.2 | 8.0 | 0.00 | 0.00 | 0.00 | 83 | 1004.0 |
| 20260507024003 | 14 | 120 | 3.2 | 4.8 | 0.00 | 0.00 | 0.00 | 83 | 1004.0 |
| 20260507023002 | 13 | 112 | 3.2 | 3.2 | 0.00 | 0.00 | 0.00 | 83 | 1003.0 |
| 20260507022002 | 13 | 113 | 3.2 | 6.4 | 0.00 | 0.00 | 0.00 | 83 | 1003.0 |
| 20260507021002 | 13 | 109 | 3.2 | 4.8 | 0.00 | 0.00 | 0.00 | 84 | 1003.0 |
| 20260507020003 | 13 | 112 | 3.2 | 4.8 | 0.00 | 0.00 | 0.00 | 84 | 1003.0 |
| 20260507015002 | 13 | 103 | 3.2 | 3.2 | 0.00 | 0.00 | 0.00 | 84 | 1003.0 |
| 20260507014002 | 13 | 90 | 1.6 | 3.2 | 0.00 | 0.00 | 0.00 | 84 | 1004.0 |
| 20260507013002 | 13 | 106 | 3.2 | 4.8 | 0.00 | 0.00 | 0.00 | 84 | 1004.0 |
| 20260507012002 | 13 | 105 | 1.6 | 3.2 | 0.00 | 0.00 | 0.00 | 83 | 1004.0 |
| 20260507011002 | 13 | 108 | 3.2 | 4.8 | 0.00 | 0.00 | 0.00 | 83 | 1004.0 |
| 20260507010002 | 13 | 111 | 3.2 | 4.8 | 0.00 | 0.00 | 0.00 | 83 | 1004.0 |
| 20260507005002 | 13 | 113 | 3.2 | 3.2 | 0.00 | 0.00 | 0.00 | 82 | 1004.0 |
| 20260507004002 | 13 | 110 | 3.2 | 4.8 | 0.00 | 0.00 | 0.00 | 82 | 1004.0 |
| 20260507003002 | 13 | 109 | 3.2 | 4.8 | 0.00 | 0.00 | 0.00 | 82 | 1004.0 |
| 20260507002002 | 13 | 109 | 3.2 | 4.8 | 0.00 | 0.00 | 0.00 | 81 | 1004.0 |
| 20260507001002 | 14 | 114 | 3.2 | 4.8 | 0.00 | 0.00 | 0.00 | 81 | 1004.0 |
| 20260507000002 | 14 | 112 | 3.2 | 4.8 | 0.00 | 0.00 | 0.00 | 81 | 1004.0 |
| 20260506235002 | 14 | 117 | 4.8 | 6.4 | 0.00 | 0.00 | 0.00 | 81 | 1004.0 |
| 20260506234002 | 14 | 114 | 3.2 | 4.8 | 0.00 | 0.00 | 0.00 | 80 | 1004.0 |
| 20260506233002 | 14 | 116 | 3.2 | 4.8 | 0.00 | 0.00 | 0.00 | 80 | 1004.0 |
| 20260506232001 | 14 | 115 | 3.2 | 4.8 | 0.00 | 0.00 | 0.00 | 79 | 1004.0 |
| 20260506231002 | 15 | 107 | 3.2 | 4.8 | 0.00 | 0.00 | 0.00 | 79 | 1004.0 |
| 20260506230002 | 15 | 114 | 3.2 | 4.8 | 0.00 | 0.00 | 0.00 | 78 | 1004.0 |
| 20260506225002 | 15 | 114 | 3.2 | 4.8 | 0.00 | 0.00 | 0.00 | 78 | 1004.0 |
| 20260506224002 | 15 | 114 | 3.2 | 4.8 | 0.00 | 0.00 | 0.00 | 77 | 1004.0 |
| 20260506223002 | 15 | 113 | 3.2 | 4.8 | 0.00 | 0.00 | 0.00 | 76 | 1004.0 |
| 20260506222002 | 15 | 115 | 3.2 | 4.8 | 0.00 | 0.00 | 0.00 | 76 | 1004.0 |
| 20260506221002 | 15 | 113 | 3.2 | 3.2 | 0.00 | 0.00 | 0.00 | 75 | 1004.0 |
| 20260506220002 | 15 | 114 | 3.2 | 3.2 | 0.00 | 0.00 | 0.00 | 75 | 1004.0 |
| 20260506215004 | 16 | 113 | 3.2 | 4.8 | 0.00 | 0.00 | 0.00 | 74 | 1004.0 |
| 20260506214002 | 16 | 112 | 3.2 | 4.8 | 0.00 | 0.00 | 0.00 | 73 | 1004.0 |
| 20260506213002 | 16 | 113 | 3.2 | 4.8 | 0.00 | 0.00 | 0.00 | 72 | 1004.0 |
| 20260506212002 | 16 | 117 | 3.2 | 4.8 | 0.00 | 0.00 | 0.00 | 70 | 1004.0 |
| 20260506211002 | 17 | 117 | 3.2 | 3.2 | 0.00 | 0.00 | 0.00 | 70 | 1004.0 |
| 20260506210002 | 17 | 118 | 3.2 | 4.8 | 0.00 | 0.00 | 0.00 | 69 | 1004.0 |
| 20260506205002 | 17 | 117 | 3.2 | 4.8 | 0.00 | 0.00 | 0.00 | 68 | 1004.0 |
| 20260506204002 | 17 | 119 | 3.2 | 4.8 | 0.00 | 0.00 | 0.00 | 67 | 1004.0 |
| 20260506203002 | 18 | 121 | 3.2 | 3.2 | 0.00 | 0.00 | 0.00 | 66 | 1004.0 |
| 20260506202003 | 18 | 110 | 3.2 | 3.2 | 0.00 | 0.00 | 0.00 | 64 | 1004.0 |
| 20260506201002 | 18 | 90 | 1.6 | 4.8 | 0.00 | 0.00 | 0.00 | 63 | 1004.0 |
| 20260506200002 | 18 | 90 | 1.6 | 4.8 | 0.00 | 0.00 | 0.00 | 62 | 1004.0 |
| 20260506195002 | 19 | 90 | 1.6 | 4.8 | 0.00 | 0.00 | 0.00 | 62 | 1004.0 |
| 20260506194002 | 19 | 100 | 3.2 | 4.8 | 0.00 | 0.00 | 0.00 | 61 | 1004.0 |
| 20260506193002 | 20 | 106 | 3.2 | 6.4 | 0.00 | 0.00 | 0.00 | 61 | 1004.0 |
| 20260506192001 | 20 | 90 | 3.2 | 6.4 | 0.00 | 0.00 | 0.00 | 60 | 1004.0 |
| 20260506191002 | 20 | 90 | 3.2 | 6.4 | 0.00 | 0.00 | 0.00 | 59 | 1004.0 |
| 20260506190002 | 20 | 90 | 3.2 | 4.8 | 0.00 | 0.00 | 0.00 | 58 | 1004.0 |
| 20260506185003 | 20 | 42 | 3.2 | 6.4 | 0.00 | 0.00 | 0.00 | 58 | 1004.0 |
| 20260506184002 | 21 | 90 | 1.6 | 6.4 | 0.00 | 0.00 | 0.00 | 57 | 1003.0 |
| 20260506183002 | 21 | 104 | 3.2 | 6.4 | 0.00 | 0.00 | 0.00 | 56 | 1003.0 |
| 20260506182002 | 21 | 90 | 3.2 | 6.4 | 0.00 | 0.00 | 0.00 | 55 | 1003.0 |
| 20260506181002 | 22 | 90 | 3.2 | 8.0 | 0.00 | 0.00 | 0.00 | 54 | 1003.0 |
| 20260506180002 | 22 | 90 | 3.2 | 6.4 | 0.00 | 0.00 | 0.00 | 53 | 1003.0 |
| 20260506175002 | 22 | 105 | 3.2 | 4.8 | 0.00 | 0.00 | 0.00 | 53 | 1003.0 |
| 20260506174002 | 22 | 65 | 3.2 | 6.4 | 0.00 | 0.00 | 0.00 | 52 | 1003.0 |
| 20260506173003 | 23 | 16 | 3.2 | 8.0 | 0.00 | 0.00 | 0.00 | 51 | 1003.0 |
| 20260506172002 | 23 | 349 | 3.2 | 8.0 | 0.00 | 0.00 | 0.00 | 50 | 1003.0 |
| 20260506171002 | 23 | 90 | 3.2 | 8.0 | 0.00 | 0.00 | 0.00 | 49 | 1002.0 |
| 20260506170002 | 24 | 41 | 4.8 | 9.7 | 0.00 | 0.00 | 0.00 | 48 | 1002.0 |
| 20260506165002 | 24 | 19 | 4.8 | 9.7 | 0.00 | 0.00 | 0.00 | 47 | 1002.0 |
| 20260506164003 | 24 | 19 | 4.8 | 11.3 | 0.00 | 0.00 | 0.00 | 47 | 1002.0 |
| 20260506163003 | 25 | 11 | 4.8 | 12.9 | 0.00 | 0.00 | 0.00 | 45 | 1002.0 |
| 20260506161002 | 25 | 349 | 4.8 | 17.7 | 0.00 | 0.00 | 0.00 | 44 | 1002.0 |
| 20260506160002 | 26 | 333 | 4.8 | 12.9 | 0.00 | 0.00 | 0.00 | 44 | 1002.0 |
| 20260506155002 | 26 | 315 | 4.8 | 14.5 | 0.00 | 0.00 | 0.00 | 44 | 1002.0 |
| 20260506154003 | 25 | 287 | 3.2 | 9.7 | 0.00 | 0.00 | 0.00 | 44 | 1002.0 |
| 20260506153002 | 26 | 320 | 4.8 | 12.9 | 0.00 | 0.00 | 0.00 | 43 | 1002.0 |
| 20260506152002 | 26 | 319 | 6.4 | 19.3 | 0.00 | 0.00 | 0.00 | 42 | 1002.0 |
| 20260506151003 | 26 | 308 | 4.8 | 16.1 | 0.00 | 0.00 | 0.00 | 41 | 1002.0 |
| 20260506150003 | 26 | 291 | 4.8 | 14.5 | 0.00 | 0.00 | 0.00 | 40 | 1002.0 |
| 20260506145002 | 27 | 291 | 4.8 | 16.1 | 0.00 | 0.00 | 0.00 | 39 | 1002.0 |
| 20260506144002 | 27 | 303 | 4.8 | 20.9 | 0.00 | 0.00 | 0.00 | 38 | 1002.0 |
| 20260506143002 | 27 | 275 | 4.8 | 11.3 | 0.00 | 0.00 | 0.00 | 38 | 1002.0 |
| 20260506142003 | 27 | 284 | 6.4 | 12.9 | 0.00 | 0.00 | 0.00 | 38 | 1001.0 |
| 20260506141002 | 27 | 285 | 8.0 | 17.7 | 0.00 | 0.00 | 0.00 | 38 | 1002.0 |
| 20260506140002 | 27 | 280 | 3.2 | 12.9 | 0.00 | 0.00 | 0.00 | 38 | 1001.0 |
| 20260506135002 | 27 | 282 | 4.8 | 12.9 | 0.00 | 0.00 | 0.00 | 37 | 1001.0 |
| 20260506134002 | 27 | 258 | 4.8 | 8.0 | 0.00 | 0.00 | 0.00 | 37 | 1001.0 |
| 20260506133002 | 27 | 261 | 6.4 | 12.9 | 0.00 | 0.00 | 0.00 | 37 | 1001.0 |
| 20260506132002 | 27 | 283 | 6.4 | 14.5 | 0.00 | 0.00 | 0.00 | 38 | 1002.0 |
| 20260506131002 | 27 | 270 | 6.4 | 17.7 | 0.00 | 0.00 | 0.00 | 37 | 1002.0 |
| 20260506130003 | 27 | 281 | 4.8 | 12.9 | 0.00 | 0.00 | 0.00 | 37 | 1002.0 |
| 20260506125002 | 27 | 255 | 6.4 | 20.9 | 0.00 | 0.00 | 0.00 | 37 | 1002.0 |
| 20260506124002 | 27 | 233 | 6.4 | 16.1 | 0.00 | 0.00 | 0.00 | 37 | 1002.0 |
| 20260506123003 | 27 | 205 | 4.8 | 12.9 | 0.00 | 0.00 | 0.00 | 40 | 1002.0 |
| 20260506122003 | 27 | 154 | 3.2 | 6.4 | 0.00 | 0.00 | 0.00 | 41 | 1002.0 |
| 20260506121002 | 27 | 128 | 4.8 | 8.0 | 0.00 | 0.00 | 0.00 | 42 | 1002.0 |
| 20260506120002 | 27 | 126 | 4.8 | 8.0 | 0.00 | 0.00 | 0.00 | 43 | 1002.0 |
| 20260506115002 | 27 | 260 | 3.2 | 8.0 | 0.00 | 0.00 | 0.00 | 45 | 1002.0 |
| 20260506114004 | 26 | 128 | 4.8 | 8.0 | 0.00 | 0.00 | 0.00 | 45 | 1002.0 |
| 20260506113002 | 26 | 270 | 3.2 | 8.0 | 0.00 | 0.00 | 0.00 | 46 | 1002.0 |
| 20260506112002 | 26 | 260 | 3.2 | 8.0 | 0.00 | 0.00 | 0.00 | 46 | 1002.0 |
| 20260506111002 | 26 | 145 | 3.2 | 8.0 | 0.00 | 0.00 | 0.00 | 48 | 1003.0 |
| 20260506110002 | 26 | 138 | 3.2 | 8.0 | 0.00 | 0.00 | 0.00 | 50 | 1003.0 |
| 20260506105002 | 25 | 132 | 3.2 | 6.4 | 0.00 | 0.00 | 0.00 | 52 | 1003.0 |
| 20260506104002 | 25 | 135 | 4.8 | 14.5 | 0.00 | 0.00 | 0.00 | 54 | 1003.0 |
| 20260506103002 | 24 | 127 | 3.2 | 8.0 | 0.00 | 0.00 | 0.00 | 57 | 1003.0 |
| 20260506102002 | 23 | 128 | 4.8 | 14.5 | 0.00 | 0.00 | 0.00 | 58 | 1003.0 |
| 20260506101002 | 23 | 128 | 4.8 | 12.9 | 0.00 | 0.00 | 0.00 | 59 | 1003.0 |
| 20260506100002 | 22 | 128 | 3.2 | 6.4 | 0.00 | 0.00 | 0.00 | 61 | 1003.0 |
| 20260506095002 | 22 | 144 | 3.2 | 12.9 | 0.00 | 0.00 | 0.00 | 63 | 1004.0 |
| 20260506094001 | 21 | 119 | 4.8 | 14.5 | 0.00 | 0.00 | 0.00 | 63 | 1004.0 |
| 20260506093003 | 21 | 122 | 6.4 | 9.7 | 0.00 | 0.00 | 0.00 | 64 | 1004.0 |
| 20260506092003 | 21 | 120 | 3.2 | 9.7 | 0.00 | 0.00 | 0.00 | 65 | 1004.0 |
| 20260506091002 | 21 | 131 | 4.8 | 11.3 | 0.00 | 0.00 | 0.00 | 65 | 1004.0 |
| 20260506090003 | 21 | 127 | 6.4 | 12.9 | 0.00 | 0.00 | 0.00 | 65 | 1004.0 |
| 20260506085002 | 21 | 120 | 3.2 | 8.0 | 0.00 | 0.00 | 0.00 | 65 | 1004.0 |
| 20260506084002 | 20 | 119 | 4.8 | 9.7 | 0.00 | 0.00 | 0.00 | 66 | 1004.0 |
| 20260506083003 | 20 | 132 | 4.8 | 9.7 | 0.00 | 0.00 | 0.00 | 66 | 1004.0 |
| 20260506082005 | 20 | 125 | 4.8 | 8.0 | 0.00 | 0.00 | 0.00 | 65 | 1004.0 |
| 20260506081002 | 19 | 125 | 4.8 | 9.7 | 0.00 | 0.00 | 0.00 | 65 | 1004.0 |
| 20260506073003 | 16 | 134 | 4.8 | 11.3 | 0.00 | 0.00 | 0.00 | 63 | 1004.0 |
| 20260506072003 | 16 | 130 | 6.4 | 12.9 | 0.00 | 0.00 | 0.00 | 63 | 1004.0 |
| 20260506071005 | 15 | 132 | 4.8 | 9.7 | 0.00 | 0.00 | 0.00 | 66 | 1004.0 |
| 20260506062008 | 13 | 139 | 8.0 | 14.5 | 0.00 | 0.00 | 0.00 | 79 | 1005.0 |
| 20260506061005 | 13 | 126 | 4.8 | 12.9 | 0.00 | 0.00 | 0.00 | 78 | 1005.0 |
| 20260506051005 | 12 | 126 | 6.4 | 11.3 | 0.00 | 0.00 | 0.00 | 75 | 1005.0 |